Time,TemperatureF,DewpointF,PressureIn,WindDirection,WindDirectionDegrees,WindSpeedMPH,WindSpeedGustMPH,Humidity,HourlyPrecipIn,Conditions,Clouds,dailyrainin,SoftwareType,DateUTC
2013-03-02 00:00:00,54.0,50.0,30.26,SSW,202,1.2,4.2,85,0.00,,,0.00,Rainwise IP-100,2013-03-02 08:00:00,
2013-03-02 00:05:00,54.0,50.0,30.26,SSW,202,0.0,3.3,85,0.00,,,0.00,Rainwise IP-100,2013-03-02 08:05:00,
2013-03-02 00:10:00,53.9,50.0,30.26,SSW,202,0.0,3.3,85,0.00,,,0.00,Rainwise IP-100,2013-03-02 08:10:00,
2013-03-02 00:15:00,53.9,50.0,30.26,SSW,202,0.0,3.0,86,0.00,,,0.00,Rainwise IP-100,2013-03-02 08:15:00,
2013-03-02 00:20:00,53.8,50.0,30.26,SSW,202,0.0,2.6,86,0.00,,,0.00,Rainwise IP-100,2013-03-02 08:20:00,
2013-03-02 00:25:00,53.8,50.0,30.26,SSW,202,1.9,1.9,86,0.00,,,0.00,Rainwise IP-100,2013-03-02 08:25:00,
2013-03-02 00:30:00,53.7,50.0,30.26,SSW,202,0.0,3.5,87,0.00,,,0.00,Rainwise IP-100,2013-03-02 08:30:00,
2013-03-02 00:35:00,53.7,50.0,30.26,SSW,202,1.2,2.1,87,0.00,,,0.00,Rainwise IP-100,2013-03-02 08:35:00,
2013-03-02 00:40:00,53.6,50.0,30.26,SSW,202,0.0,2.6,87,0.00,,,0.00,Rainwise IP-100,2013-03-02 08:40:00,
2013-03-02 00:45:00,53.6,50.0,30.26,SW,225,0.0,3.0,87,0.00,,,0.00,Rainwise IP-100,2013-03-02 08:45:00,
2013-03-02 00:50:00,53.6,50.0,30.26,SSW,202,0.0,3.3,87,0.00,,,0.00,Rainwise IP-100,2013-03-02 08:50:00,
2013-03-02 00:55:00,53.6,50.0,30.25,SSW,202,1.4,2.6,87,0.00,,,0.00,Rainwise IP-100,2013-03-02 08:55:00,
2013-03-02 01:00:00,53.6,50.0,30.25,SSW,202,0.0,4.4,87,0.00,,,0.00,Rainwise IP-100,2013-03-02 09:00:00,
2013-03-02 01:05:00,53.6,49.0,30.26,South,180,0.0,7.0,86,0.00,,,0.00,Rainwise IP-100,2013-03-02 09:05:00,
2013-03-02 01:10:00,53.6,49.0,30.25,SW,225,1.9,3.7,86,0.00,,,0.00,Rainwise IP-100,2013-03-02 09:10:00,
2013-03-02 01:15:00,53.6,49.0,30.25,SSW,202,1.4,4.2,86,0.00,,,0.00,Rainwise IP-100,2013-03-02 09:15:00,
2013-03-02 01:20:00,53.6,49.0,30.26,SSW,202,1.4,4.9,86,0.00,,,0.00,Rainwise IP-100,2013-03-02 09:20:00,
2013-03-02 01:25:00,53.6,49.0,30.25,WSW,247,0.0,3.3,86,0.00,,,0.00,Rainwise IP-100,2013-03-02 09:25:00,
2013-03-02 01:30:00,53.6,49.0,30.25,South,180,0.0,3.0,86,0.00,,,0.00,Rainwise IP-100,2013-03-02 09:30:00,
2013-03-02 01:35:00,53.6,49.0,30.26,South,180,3.5,4.7,86,0.00,,,0.00,Rainwise IP-100,2013-03-02 09:35:00,
2013-03-02 01:40:00,53.6,49.0,30.26,SSW,202,2.8,6.1,86,0.00,,,0.00,Rainwise IP-100,2013-03-02 09:40:00,
2013-03-02 01:45:00,53.6,49.0,30.25,SSE,157,1.2,4.7,85,0.00,,,0.00,Rainwise IP-100,2013-03-02 09:45:00,
2013-03-02 01:50:00,53.6,49.0,30.25,SSW,202,1.6,4.7,85,0.00,,,0.00,Rainwise IP-100,2013-03-02 09:50:00,
2013-03-02 01:55:00,53.6,49.0,30.25,SSW,202,0.0,4.2,85,0.00,,,0.00,Rainwise IP-100,2013-03-02 09:55:00,
2013-03-02 02:00:00,53.6,49.0,30.25,SSW,202,0.0,4.0,85,0.00,,,0.00,Rainwise IP-100,2013-03-02 10:00:00,
2013-03-02 02:06:00,53.6,49.0,30.24,ENE,67,0.0,4.0,85,0.00,,,0.00,Rainwise IP-100,2013-03-02 10:06:00,
2013-03-02 02:11:00,53.5,49.0,30.25,SSW,202,1.9,4.2,85,0.00,,,0.00,Rainwise IP-100,2013-03-02 10:11:00,
2013-03-02 02:16:00,53.4,48.0,30.24,SSW,202,0.0,3.3,84,0.00,,,0.00,Rainwise IP-100,2013-03-02 10:16:00,
2013-03-02 02:21:00,53.4,48.0,30.24,SSW,202,1.4,4.0,84,0.00,,,0.00,Rainwise IP-100,2013-03-02 10:21:00,
2013-03-02 02:26:00,53.4,48.0,30.24,SW,225,1.2,4.7,84,0.00,,,0.00,Rainwise IP-100,2013-03-02 10:26:00,
2013-03-02 02:31:00,53.4,48.0,30.24,South,180,1.6,4.7,84,0.00,,,0.00,Rainwise IP-100,2013-03-02 10:31:00,
2013-03-02 02:36:00,53.4,48.0,30.23,SSW,202,1.4,3.5,84,0.00,,,0.00,Rainwise IP-100,2013-03-02 10:36:00,
2013-03-02 02:41:00,53.3,48.0,30.23,SSW,202,0.0,3.3,84,0.00,,,0.00,Rainwise IP-100,2013-03-02 10:41:00,
2013-03-02 02:46:00,53.3,48.0,30.23,SSW,202,1.4,3.3,83,0.00,,,0.00,Rainwise IP-100,2013-03-02 10:46:00,
2013-03-02 02:51:00,53.4,48.0,30.23,South,180,1.6,6.1,83,0.00,,,0.00,Rainwise IP-100,2013-03-02 10:51:00,
2013-03-02 02:56:00,53.4,48.0,30.23,SSW,202,0.0,4.2,83,0.00,,,0.00,Rainwise IP-100,2013-03-02 10:56:00,
2013-03-02 03:01:00,53.4,48.0,30.22,SSW,202,0.0,3.7,83,0.00,,,0.00,Rainwise IP-100,2013-03-02 11:01:00,
2013-03-02 03:06:00,53.3,48.0,30.21,South,180,1.2,4.2,83,0.00,,,0.00,Rainwise IP-100,2013-03-02 11:06:00,
2013-03-02 03:11:00,53.2,47.5,30.21,SSW,202,0.0,3.5,83,0.00,,,0.00,Rainwise IP-100,2013-03-02 11:11:00,
2013-03-02 03:16:00,53.1,47.5,30.21,SW,225,0.0,3.3,83,0.00,,,0.00,Rainwise IP-100,2013-03-02 11:16:00,
2013-03-02 03:21:00,53.0,47.5,30.21,South,180,1.4,4.2,83,0.00,,,0.00,Rainwise IP-100,2013-03-02 11:21:00,
2013-03-02 03:26:00,52.9,47.5,30.21,SSW,202,2.8,3.5,83,0.00,,,0.00,Rainwise IP-100,2013-03-02 11:26:00,
2013-03-02 03:31:00,52.8,47.5,30.20,SSW,202,0.0,3.5,83,0.00,,,0.00,Rainwise IP-100,2013-03-02 11:31:00,
2013-03-02 03:36:00,52.7,48.0,30.20,SSW,202,0.0,4.0,84,0.00,,,0.00,Rainwise IP-100,2013-03-02 11:36:00,
2013-03-02 03:41:00,52.7,48.0,30.20,South,180,0.0,4.7,84,0.00,,,0.00,Rainwise IP-100,2013-03-02 11:41:00,
2013-03-02 03:46:00,52.7,48.0,30.20,SSW,202,2.1,4.0,84,0.00,,,0.00,Rainwise IP-100,2013-03-02 11:46:00,
2013-03-02 03:51:00,52.7,48.0,30.19,SSW,202,1.4,4.0,84,0.00,,,0.00,Rainwise IP-100,2013-03-02 11:51:00,
2013-03-02 03:56:00,52.7,48.0,30.20,SSW,202,0.0,4.7,84,0.00,,,0.00,Rainwise IP-100,2013-03-02 11:56:00,
2013-03-02 04:01:00,52.7,48.0,30.19,SSE,157,1.2,4.7,84,0.00,,,0.00,Rainwise IP-100,2013-03-02 12:01:00,
2013-03-02 04:06:00,52.7,48.0,30.18,SSW,202,0.0,4.2,84,0.00,,,0.00,Rainwise IP-100,2013-03-02 12:06:00,
2013-03-02 04:11:00,52.7,48.0,30.19,South,180,1.4,3.3,84,0.00,,,0.00,Rainwise IP-100,2013-03-02 12:11:00,
2013-03-02 04:16:00,52.7,48.0,30.19,SSW,202,1.9,2.8,84,0.00,,,0.00,Rainwise IP-100,2013-03-02 12:16:00,
2013-03-02 04:21:00,52.6,48.0,30.19,SSW,202,2.3,4.0,84,0.00,,,0.00,Rainwise IP-100,2013-03-02 12:21:00,
2013-03-02 04:26:00,52.5,48.0,30.18,SW,225,1.4,4.9,84,0.00,,,0.00,Rainwise IP-100,2013-03-02 12:26:00,
2013-03-02 04:31:00,52.5,48.0,30.19,SSW,202,0.0,3.0,84,0.00,,,0.00,Rainwise IP-100,2013-03-02 12:31:00,
2013-03-02 04:36:00,52.5,48.0,30.19,South,180,2.1,4.2,84,0.00,,,0.00,Rainwise IP-100,2013-03-02 12:36:00,
2013-03-02 04:41:00,52.6,48.0,30.18,SSW,202,0.0,4.7,84,0.00,,,0.00,Rainwise IP-100,2013-03-02 12:41:00,
2013-03-02 04:46:00,52.6,48.0,30.18,SSW,202,1.9,6.5,84,0.00,,,0.00,Rainwise IP-100,2013-03-02 12:46:00,
2013-03-02 04:51:00,52.7,48.0,30.18,SSW,202,1.6,3.7,84,0.00,,,0.00,Rainwise IP-100,2013-03-02 12:51:00,
2013-03-02 04:56:00,52.7,48.0,30.18,SSW,202,1.4,3.7,84,0.00,,,0.00,Rainwise IP-100,2013-03-02 12:56:00,
2013-03-02 05:01:00,52.7,48.0,30.18,SSW,202,2.1,4.7,84,0.00,,,0.00,Rainwise IP-100,2013-03-02 13:01:00,
2013-03-02 05:06:00,52.7,47.5,30.18,SSW,202,0.0,4.0,83,0.00,,,0.00,Rainwise IP-100,2013-03-02 13:06:00,
2013-03-02 05:11:00,52.7,47.5,30.18,SW,225,1.9,2.3,83,0.00,,,0.00,Rainwise IP-100,2013-03-02 13:11:00,
2013-03-02 05:16:00,52.7,47.5,30.18,SSW,202,0.0,3.0,83,0.00,,,0.00,Rainwise IP-100,2013-03-02 13:16:00,
2013-03-02 05:21:00,52.7,47.5,30.18,SW,225,0.0,4.2,83,0.00,,,0.00,Rainwise IP-100,2013-03-02 13:21:00,
2013-03-02 05:26:00,52.6,47.5,30.18,SSW,202,1.4,2.6,83,0.00,,,0.00,Rainwise IP-100,2013-03-02 13:26:00,
2013-03-02 05:31:00,52.6,47.5,30.18,SSW,202,0.0,3.3,83,0.00,,,0.00,Rainwise IP-100,2013-03-02 13:31:00,
2013-03-02 05:36:00,52.5,47.5,30.18,South,180,1.4,4.0,83,0.00,,,0.00,Rainwise IP-100,2013-03-02 13:36:00,
2013-03-02 05:41:00,52.5,47.5,30.18,SSW,202,0.0,3.7,83,0.00,,,0.00,Rainwise IP-100,2013-03-02 13:41:00,
2013-03-02 05:46:00,52.5,47.5,30.18,SSW,202,1.6,3.3,83,0.00,,,0.00,Rainwise IP-100,2013-03-02 13:46:00,
2013-03-02 05:51:00,52.5,47.5,30.17,SW,225,1.9,3.3,83,0.00,,,0.00,Rainwise IP-100,2013-03-02 13:51:00,
2013-03-02 05:56:00,52.5,47.5,30.17,SSW,202,0.0,2.6,83,0.00,,,0.00,Rainwise IP-100,2013-03-02 13:56:00,
2013-03-02 06:01:00,52.4,47.0,30.17,South,180,3.3,3.3,83,0.00,,,0.00,Rainwise IP-100,2013-03-02 14:01:00,
2013-03-02 06:06:00,52.4,47.5,30.17,SSW,202,1.4,3.3,84,0.00,,,0.00,Rainwise IP-100,2013-03-02 14:06:00,
2013-03-02 06:11:00,52.4,47.0,30.18,SSE,157,0.0,3.3,83,0.00,,,0.00,Rainwise IP-100,2013-03-02 14:11:00,
2013-03-02 06:16:00,52.4,47.0,30.18,SSW,202,1.4,6.5,83,0.00,,,0.00,Rainwise IP-100,2013-03-02 14:16:00,
2013-03-02 06:21:00,52.4,47.0,30.17,SSW,202,0.0,3.3,83,0.00,,,0.00,Rainwise IP-100,2013-03-02 14:21:00,
2013-03-02 06:26:00,52.4,47.0,30.17,SSW,202,1.9,5.1,83,0.00,,,0.00,Rainwise IP-100,2013-03-02 14:26:00,
2013-03-02 06:31:00,52.4,47.0,30.17,South,180,1.9,5.4,83,0.00,,,0.00,Rainwise IP-100,2013-03-02 14:31:00,
2013-03-02 06:36:00,52.4,47.0,30.16,SSW,202,1.6,3.3,83,0.00,,,0.00,Rainwise IP-100,2013-03-02 14:36:00,
2013-03-02 06:41:00,52.3,47.0,30.17,SSW,202,0.0,3.7,83,0.00,,,0.00,Rainwise IP-100,2013-03-02 14:41:00,
2013-03-02 06:46:00,52.3,47.0,30.17,SSW,202,2.1,4.2,83,0.00,,,0.00,Rainwise IP-100,2013-03-02 14:46:00,
2013-03-02 06:51:00,52.2,47.0,30.16,South,180,0.0,2.8,83,0.00,,,0.00,Rainwise IP-100,2013-03-02 14:51:00,
2013-03-02 06:56:00,52.2,47.0,30.16,SSW,202,1.2,3.5,83,0.00,,,0.00,Rainwise IP-100,2013-03-02 14:56:00,
2013-03-02 07:01:00,52.2,47.0,30.16,SSW,202,1.4,3.3,83,0.00,,,0.00,Rainwise IP-100,2013-03-02 15:01:00,
2013-03-02 07:06:00,52.2,47.0,30.16,South,180,1.6,3.3,83,0.00,,,0.00,Rainwise IP-100,2013-03-02 15:06:00,
2013-03-02 07:11:00,52.1,47.0,30.16,South,180,2.6,3.3,83,0.00,,,0.00,Rainwise IP-100,2013-03-02 15:11:00,
2013-03-02 07:16:00,52.1,47.0,30.16,SW,225,0.0,2.8,83,0.00,,,0.00,Rainwise IP-100,2013-03-02 15:16:00,
2013-03-02 07:21:00,52.1,47.0,30.15,SSW,202,1.4,4.7,83,0.00,,,0.00,Rainwise IP-100,2013-03-02 15:21:00,
2013-03-02 07:26:00,52.1,47.0,30.15,South,180,0.0,6.5,83,0.00,,,0.00,Rainwise IP-100,2013-03-02 15:26:00,
2013-03-02 07:31:00,52.1,47.0,30.15,SW,225,2.1,4.7,83,0.00,,,0.00,Rainwise IP-100,2013-03-02 15:31:00,
2013-03-02 07:36:00,52.1,47.5,30.15,SSW,202,0.0,4.7,84,0.00,,,0.00,Rainwise IP-100,2013-03-02 15:36:00,
2013-03-02 07:41:00,52.0,47.5,30.14,SW,225,2.1,5.1,84,0.00,,,0.00,Rainwise IP-100,2013-03-02 15:41:00,
2013-03-02 07:46:00,52.1,47.0,30.14,SSW,202,2.1,6.8,83,0.00,,,0.00,Rainwise IP-100,2013-03-02 15:46:00,
2013-03-02 07:51:00,52.2,47.0,30.14,SSW,202,2.8,5.1,83,0.00,,,0.00,Rainwise IP-100,2013-03-02 15:51:00,
2013-03-02 07:56:00,52.3,47.0,30.14,South,180,0.0,5.4,83,0.00,,,0.00,Rainwise IP-100,2013-03-02 15:56:00,
2013-03-02 08:01:00,52.3,47.0,30.14,East,90,1.4,4.2,83,0.00,,,0.00,Rainwise IP-100,2013-03-02 16:01:00,
2013-03-02 08:06:00,52.3,47.0,30.14,SW,225,1.6,5.8,83,0.00,,,0.00,Rainwise IP-100,2013-03-02 16:06:00,
2013-03-02 08:11:00,52.4,47.0,30.14,SSW,202,3.0,6.5,83,0.00,,,0.00,Rainwise IP-100,2013-03-02 16:11:00,
2013-03-02 08:16:00,52.5,47.5,30.13,SW,225,2.1,5.4,83,0.00,,,0.00,Rainwise IP-100,2013-03-02 16:16:00,
2013-03-02 08:21:00,52.6,47.5,30.14,SSW,202,2.1,3.7,83,0.00,,,0.00,Rainwise IP-100,2013-03-02 16:21:00,
2013-03-02 08:26:00,52.6,47.5,30.14,SSW,202,1.2,3.7,82,0.00,,,0.00,Rainwise IP-100,2013-03-02 16:26:00,
2013-03-02 08:31:00,52.7,47.5,30.14,SSW,202,1.9,4.4,82,0.00,,,0.00,Rainwise IP-100,2013-03-02 16:31:00,
2013-03-02 08:36:00,52.9,47.5,30.14,South,180,0.0,4.4,82,0.00,,,0.00,Rainwise IP-100,2013-03-02 16:36:00,
2013-03-02 08:41:00,53.0,47.5,30.14,South,180,1.2,5.4,82,0.00,,,0.00,Rainwise IP-100,2013-03-02 16:41:00,
2013-03-02 08:46:00,53.0,47.0,30.14,South,180,1.4,4.0,81,0.00,,,0.00,Rainwise IP-100,2013-03-02 16:46:00,
2013-03-02 08:51:00,53.1,47.0,30.14,SSW,202,3.7,4.9,81,0.00,,,0.00,Rainwise IP-100,2013-03-02 16:51:00,
2013-03-02 08:56:00,53.1,47.0,30.14,SSW,202,2.3,4.7,81,0.00,,,0.00,Rainwise IP-100,2013-03-02 16:56:00,
2013-03-02 09:01:00,53.1,47.0,30.14,SW,225,1.9,4.2,81,0.00,,,0.00,Rainwise IP-100,2013-03-02 17:01:00,
2013-03-02 09:06:00,53.2,47.0,30.14,South,180,1.9,4.4,81,0.00,,,0.00,Rainwise IP-100,2013-03-02 17:06:00,
2013-03-02 09:11:00,53.2,47.0,30.14,SW,225,0.0,4.4,81,0.00,,,0.00,Rainwise IP-100,2013-03-02 17:11:00,
2013-03-02 09:16:00,53.3,48.0,30.14,SSE,157,0.0,2.8,82,0.00,,,0.00,Rainwise IP-100,2013-03-02 17:16:00,
2013-03-02 09:21:00,53.4,48.0,30.14,SSW,202,0.0,4.4,82,0.00,,,0.00,Rainwise IP-100,2013-03-02 17:21:00,
2013-03-02 09:26:00,53.5,47.5,30.14,South,180,2.8,2.8,81,0.00,,,0.00,Rainwise IP-100,2013-03-02 17:26:00,
2013-03-02 09:31:00,53.7,47.5,30.14,South,180,1.2,3.7,81,0.00,,,0.00,Rainwise IP-100,2013-03-02 17:31:00,
2013-03-02 09:36:00,53.8,48.0,30.14,SSW,202,1.6,3.7,81,0.00,,,0.00,Rainwise IP-100,2013-03-02 17:36:00,
2013-03-02 09:41:00,53.9,48.0,30.14,SSE,157,0.0,4.4,81,0.00,,,0.00,Rainwise IP-100,2013-03-02 17:41:00,
2013-03-02 09:46:00,54.0,48.0,30.13,SSW,202,0.0,3.0,81,0.00,,,0.00,Rainwise IP-100,2013-03-02 17:46:00,
2013-03-02 09:51:00,54.1,48.0,30.14,South,180,1.2,4.7,81,0.00,,,0.00,Rainwise IP-100,2013-03-02 17:51:00,
2013-03-02 09:56:00,54.1,48.0,30.14,SSW,202,4.2,4.4,81,0.00,,,0.00,Rainwise IP-100,2013-03-02 17:56:00,
2013-03-02 10:01:00,54.1,48.0,30.13,SW,225,0.0,5.6,81,0.00,,,0.00,Rainwise IP-100,2013-03-02 18:01:00,
2013-03-02 10:06:00,54.1,48.0,30.14,SW,225,2.1,2.8,81,0.00,,,0.00,Rainwise IP-100,2013-03-02 18:06:00,
2013-03-02 10:11:00,54.2,48.0,30.13,SSW,202,1.4,4.0,81,0.00,,,0.00,Rainwise IP-100,2013-03-02 18:11:00,
2013-03-02 10:16:00,54.3,48.0,30.12,South,180,1.4,4.2,80,0.00,,,0.00,Rainwise IP-100,2013-03-02 18:16:00,
2013-03-02 10:21:00,54.5,48.0,30.13,SW,225,0.0,4.0,80,0.00,,,0.00,Rainwise IP-100,2013-03-02 18:21:00,
2013-03-02 10:26:00,54.6,48.0,30.12,SW,225,2.1,2.1,80,0.00,,,0.00,Rainwise IP-100,2013-03-02 18:26:00,
2013-03-02 10:31:00,54.8,49.0,30.12,SSW,202,2.8,3.0,80,0.00,,,0.00,Rainwise IP-100,2013-03-02 18:31:00,
2013-03-02 10:36:00,55.0,49.0,30.11,SSW,202,0.0,3.7,80,0.00,,,0.00,Rainwise IP-100,2013-03-02 18:36:00,
2013-03-02 10:41:00,55.2,49.0,30.12,SSW,202,1.6,3.0,79,0.00,,,0.00,Rainwise IP-100,2013-03-02 18:41:00,
2013-03-02 10:46:00,55.3,49.0,30.12,SW,225,0.0,3.0,79,0.00,,,0.00,Rainwise IP-100,2013-03-02 18:46:00,
2013-03-02 10:51:00,55.4,49.0,30.11,South,180,2.8,3.0,79,0.00,,,0.00,Rainwise IP-100,2013-03-02 18:51:00,
2013-03-02 10:56:00,55.4,49.0,30.12,SW,225,1.6,4.0,79,0.00,,,0.00,Rainwise IP-100,2013-03-02 18:56:00,
2013-03-02 11:01:00,55.4,49.0,30.12,South,180,1.4,4.4,79,0.00,,,0.00,Rainwise IP-100,2013-03-02 19:01:00,
2013-03-02 11:06:00,55.4,49.0,30.12,SSW,202,1.4,2.1,79,0.00,,,0.00,Rainwise IP-100,2013-03-02 19:06:00,
2013-03-02 11:11:00,55.4,49.0,30.11,SSW,202,1.4,4.2,79,0.00,,,0.00,Rainwise IP-100,2013-03-02 19:11:00,
2013-03-02 11:16:00,55.4,48.0,30.11,SSW,202,0.0,5.1,78,0.00,,,0.00,Rainwise IP-100,2013-03-02 19:16:00,
2013-03-02 11:21:00,55.6,49.0,30.10,South,180,1.4,6.3,78,0.00,,,0.00,Rainwise IP-100,2013-03-02 19:21:00,
2013-03-02 11:26:00,56.0,49.0,30.10,SSW,202,1.2,6.1,78,0.00,,,0.00,Rainwise IP-100,2013-03-02 19:26:00,
2013-03-02 11:31:00,56.3,49.0,30.10,South,180,0.0,4.7,77,0.00,,,0.00,Rainwise IP-100,2013-03-02 19:31:00,
2013-03-02 11:36:00,56.5,49.0,30.10,SSW,202,1.4,5.4,77,0.00,,,0.00,Rainwise IP-100,2013-03-02 19:36:00,
2013-03-02 11:42:00,56.7,49.0,30.10,SSW,202,3.0,4.4,76,0.00,,,0.00,Rainwise IP-100,2013-03-02 19:42:00,
2013-03-02 11:47:00,56.8,50.0,30.09,SSW,202,2.1,4.9,76,0.00,,,0.00,Rainwise IP-100,2013-03-02 19:47:00,
2013-03-02 11:52:00,56.7,49.0,30.10,South,180,2.1,7.0,75,0.00,,,0.00,Rainwise IP-100,2013-03-02 19:52:00,
2013-03-02 11:57:00,56.7,49.0,30.09,South,180,1.6,4.4,75,0.00,,,0.00,Rainwise IP-100,2013-03-02 19:57:00,
2013-03-02 12:02:00,56.8,49.0,30.10,SSW,202,1.2,5.8,74,0.00,,,0.00,Rainwise IP-100,2013-03-02 20:02:00,
2013-03-02 12:07:00,56.8,49.0,30.09,SW,225,1.4,3.5,75,0.00,,,0.00,Rainwise IP-100,2013-03-02 20:07:00,
2013-03-02 12:12:00,56.8,50.0,30.10,South,180,1.2,3.3,77,0.00,,,0.00,Rainwise IP-100,2013-03-02 20:12:00,
2013-03-02 12:17:00,56.9,50.0,30.10,SW,225,2.1,7.2,76,0.00,,,0.00,Rainwise IP-100,2013-03-02 20:17:00,
2013-03-02 12:22:00,56.9,49.0,30.09,SSW,202,1.4,4.0,75,0.00,,,0.00,Rainwise IP-100,2013-03-02 20:22:00,
2013-03-02 12:27:00,56.7,49.0,30.09,SSW,202,3.5,5.1,75,0.00,,,0.00,Rainwise IP-100,2013-03-02 20:27:00,
2013-03-02 12:32:00,56.8,49.0,30.08,SSW,202,1.4,4.9,75,0.00,,,0.00,Rainwise IP-100,2013-03-02 20:32:00,
2013-03-02 12:37:00,57.1,49.0,30.08,South,180,1.2,6.1,75,0.00,,,0.00,Rainwise IP-100,2013-03-02 20:37:00,
2013-03-02 12:42:00,57.3,50.0,30.08,SSW,202,3.3,4.4,75,0.00,,,0.00,Rainwise IP-100,2013-03-02 20:42:00,
2013-03-02 12:47:00,57.5,50.0,30.08,SSE,157,1.4,4.2,75,0.00,,,0.00,Rainwise IP-100,2013-03-02 20:47:00,
2013-03-02 12:52:00,57.6,50.0,30.08,SSW,202,1.9,6.1,75,0.00,,,0.00,Rainwise IP-100,2013-03-02 20:52:00,
2013-03-02 12:57:00,57.5,50.0,30.08,SSW,202,0.0,6.1,75,0.00,,,0.00,Rainwise IP-100,2013-03-02 20:57:00,
2013-03-02 13:02:00,57.2,49.0,30.08,SW,225,1.9,5.8,74,0.00,,,0.00,Rainwise IP-100,2013-03-02 21:02:00,
2013-03-02 13:07:00,57.0,49.0,30.08,SW,225,3.7,6.8,74,0.00,,,0.00,Rainwise IP-100,2013-03-02 21:07:00,
2013-03-02 13:12:00,56.7,48.0,30.08,SSW,202,1.6,5.4,74,0.00,,,0.00,Rainwise IP-100,2013-03-02 21:12:00,
2013-03-02 13:17:00,56.5,49.0,30.08,SSW,202,3.7,4.9,75,0.00,,,0.00,Rainwise IP-100,2013-03-02 21:17:00,
2013-03-02 13:22:00,56.3,49.0,30.08,WSW,247,2.3,4.9,76,0.00,,,0.00,Rainwise IP-100,2013-03-02 21:22:00,
2013-03-02 13:27:00,56.0,48.0,30.07,SSE,157,0.0,6.1,76,0.00,,,0.00,Rainwise IP-100,2013-03-02 21:27:00,
2013-03-02 13:32:00,55.7,49.0,30.07,SSW,202,2.1,4.7,77,0.00,,,0.00,Rainwise IP-100,2013-03-02 21:32:00,
2013-03-02 13:37:00,55.2,49.0,30.08,SSW,202,2.6,5.1,79,0.00,,,0.00,Rainwise IP-100,2013-03-02 21:37:00,
2013-03-02 13:42:00,54.7,49.0,30.07,SSW,202,0.0,4.4,81,0.06,,,0.01,Rainwise IP-100,2013-03-02 21:42:00,
2013-03-02 13:47:00,54.2,48.0,30.07,South,180,2.1,5.1,82,0.06,,,0.01,Rainwise IP-100,2013-03-02 21:47:00,
2013-03-02 13:52:00,53.8,49.0,30.07,SSW,202,2.8,5.1,83,0.00,,,0.01,Rainwise IP-100,2013-03-02 21:52:00,
2013-03-02 13:57:00,53.6,48.0,30.07,South,180,2.1,4.4,83,0.00,,,0.01,Rainwise IP-100,2013-03-02 21:57:00,
2013-03-02 14:02:00,53.6,48.0,30.07,SSW,202,2.8,4.4,84,0.00,,,0.01,Rainwise IP-100,2013-03-02 22:02:00,
2013-03-02 14:07:00,53.6,48.0,30.07,SSW,202,1.4,3.3,84,0.00,,,0.01,Rainwise IP-100,2013-03-02 22:07:00,
2013-03-02 14:12:00,53.6,49.0,30.07,SSW,202,1.4,3.0,85,0.00,,,0.01,Rainwise IP-100,2013-03-02 22:12:00,
2013-03-02 14:17:00,53.6,49.0,30.07,SSW,202,1.4,2.3,85,0.00,,,0.01,Rainwise IP-100,2013-03-02 22:17:00,
2013-03-02 14:22:00,53.5,49.0,30.06,SW,225,3.0,3.3,85,0.00,,,0.01,Rainwise IP-100,2013-03-02 22:22:00,
2013-03-02 14:27:00,53.3,49.0,30.07,South,180,2.8,3.3,85,0.00,,,0.01,Rainwise IP-100,2013-03-02 22:27:00,
2013-03-02 14:32:00,53.0,48.0,30.07,SSW,202,2.6,4.2,86,0.00,,,0.01,Rainwise IP-100,2013-03-02 22:32:00,
2013-03-02 14:37:00,52.8,49.0,30.07,South,180,9.3,9.3,87,0.00,,,0.01,Rainwise IP-100,2013-03-02 22:37:00,
2013-03-02 14:42:00,52.7,49.0,30.06,South,180,0.0,9.3,88,0.00,,,0.01,Rainwise IP-100,2013-03-02 22:42:00,
2013-03-02 14:47:00,52.6,50.0,30.07,SSW,202,0.0,3.0,89,0.00,,,0.01,Rainwise IP-100,2013-03-02 22:47:00,
2013-03-02 14:52:00,52.6,50.0,30.06,SSW,202,1.6,5.1,90,0.00,,,0.01,Rainwise IP-100,2013-03-02 22:52:00,
2013-03-02 14:57:00,52.7,50.0,30.06,SSW,202,0.0,5.4,90,0.00,,,0.01,Rainwise IP-100,2013-03-02 22:57:00,
2013-03-02 15:02:00,52.7,50.0,30.06,WSW,247,2.6,4.2,89,0.00,,,0.01,Rainwise IP-100,2013-03-02 23:02:00,
2013-03-02 15:07:00,52.7,50.0,30.06,South,180,0.0,4.9,89,0.00,,,0.01,Rainwise IP-100,2013-03-02 23:07:00,
2013-03-02 15:12:00,52.7,50.0,30.06,South,180,1.2,3.5,89,0.00,,,0.01,Rainwise IP-100,2013-03-02 23:12:00,
2013-03-02 15:17:00,52.7,50.0,30.06,ESE,112,0.0,4.0,89,0.00,,,0.01,Rainwise IP-100,2013-03-02 23:17:00,
2013-03-02 15:22:00,52.8,50.0,30.06,SSE,157,3.3,5.4,89,0.00,,,0.01,Rainwise IP-100,2013-03-02 23:22:00,
2013-03-02 15:27:00,52.8,49.0,30.06,SSW,202,3.5,3.7,88,0.00,,,0.01,Rainwise IP-100,2013-03-02 23:27:00,
2013-03-02 15:32:00,52.8,49.0,30.07,SW,225,1.9,3.5,88,0.00,,,0.01,Rainwise IP-100,2013-03-02 23:32:00,
2013-03-02 15:37:00,52.8,49.0,30.07,South,180,1.4,4.0,88,0.00,,,0.01,Rainwise IP-100,2013-03-02 23:37:00,
2013-03-02 15:42:00,52.8,49.0,30.06,SW,225,1.2,4.2,88,0.00,,,0.01,Rainwise IP-100,2013-03-02 23:42:00,
2013-03-02 15:47:00,52.7,49.0,30.06,South,180,1.4,2.8,88,0.00,,,0.01,Rainwise IP-100,2013-03-02 23:47:00,
2013-03-02 15:52:00,52.6,49.0,30.06,SSW,202,0.0,3.0,88,0.00,,,0.01,Rainwise IP-100,2013-03-02 23:52:00,
2013-03-02 15:57:00,52.4,48.0,30.06,SSW,202,0.0,0.0,88,0.00,,,0.01,Rainwise IP-100,2013-03-02 23:57:00,
2013-03-02 16:02:00,52.3,49.0,30.06,SSW,202,0.0,1.2,89,0.00,,,0.01,Rainwise IP-100,2013-03-03 00:02:00,
2013-03-02 16:07:00,51.9,48.0,30.08,NNW,337,0.0,4.9,88,0.00,,,0.01,Rainwise IP-100,2013-03-03 00:07:00,
2013-03-02 16:12:00,50.9,47.5,30.06,NW,315,1.6,4.0,87,0.00,,,0.01,Rainwise IP-100,2013-03-03 00:12:00,
2013-03-02 16:17:00,49.6,46.0,30.07,NW,315,0.0,3.0,87,0.00,,,0.01,Rainwise IP-100,2013-03-03 00:17:00,
2013-03-02 16:22:00,48.6,45.0,30.07,NNW,337,0.0,2.6,87,0.00,,,0.01,Rainwise IP-100,2013-03-03 00:22:00,
2013-03-02 16:27:00,48.2,45.0,30.07,NE,45,0.0,1.2,88,0.00,,,0.01,Rainwise IP-100,2013-03-03 00:27:00,
2013-03-02 16:32:00,47.9,46.0,30.07,NE,45,0.0,0.0,90,0.00,,,0.01,Rainwise IP-100,2013-03-03 00:32:00,
2013-03-02 16:37:00,47.6,45.0,30.07,WNW,292,1.4,2.1,90,0.00,,,0.01,Rainwise IP-100,2013-03-03 00:37:00,
2013-03-02 16:42:00,47.3,44.0,30.07,WNW,292,0.0,1.4,89,0.00,,,0.01,Rainwise IP-100,2013-03-03 00:42:00,
2013-03-02 16:47:00,47.1,43.0,30.08,WNW,292,0.0,2.1,88,0.00,,,0.01,Rainwise IP-100,2013-03-03 00:47:00,
2013-03-02 16:52:00,46.8,43.0,30.08,North,0,0.0,0.0,88,0.00,,,0.01,Rainwise IP-100,2013-03-03 00:52:00,
2013-03-02 16:57:00,46.7,44.0,30.07,WNW,292,0.0,2.3,90,0.00,,,0.01,Rainwise IP-100,2013-03-03 00:57:00,
2013-03-02 17:02:00,46.4,43.0,30.08,NW,315,0.0,3.5,89,0.00,,,0.01,Rainwise IP-100,2013-03-03 01:02:00,
2013-03-02 17:07:00,46.1,42.0,30.08,WNW,292,1.2,3.5,87,0.00,,,0.01,Rainwise IP-100,2013-03-03 01:07:00,
2013-03-02 17:12:00,45.9,42.0,30.09,NNW,337,0.0,2.3,86,0.00,,,0.01,Rainwise IP-100,2013-03-03 01:12:00,
2013-03-02 17:17:00,45.8,42.0,30.09,WNW,292,0.0,1.6,88,0.00,,,0.01,Rainwise IP-100,2013-03-03 01:17:00,
2013-03-02 17:22:00,45.6,42.0,30.09,WNW,292,0.0,2.6,88,0.00,,,0.01,Rainwise IP-100,2013-03-03 01:22:00,
2013-03-02 17:27:00,45.5,42.0,30.10,WNW,292,0.0,1.6,87,0.00,,,0.01,Rainwise IP-100,2013-03-03 01:27:00,
2013-03-02 17:32:00,45.4,41.0,30.10,WNW,292,0.0,1.4,88,0.00,,,0.01,Rainwise IP-100,2013-03-03 01:32:00,
2013-03-02 17:37:00,45.3,41.0,30.10,NE,45,0.0,1.6,88,0.00,,,0.01,Rainwise IP-100,2013-03-03 01:37:00,
2013-03-02 17:42:00,45.1,41.0,30.10,NE,45,0.0,0.0,87,0.00,,,0.01,Rainwise IP-100,2013-03-03 01:42:00,
2013-03-02 17:47:00,45.0,41.0,30.10,NE,45,0.0,0.0,87,0.00,,,0.01,Rainwise IP-100,2013-03-03 01:47:00,
2013-03-02 17:52:00,45.0,41.0,30.11,NE,45,0.0,1.4,88,0.00,,,0.01,Rainwise IP-100,2013-03-03 01:52:00,
2013-03-02 17:57:00,44.8,42.0,30.11,NE,45,0.0,0.0,89,0.00,,,0.01,Rainwise IP-100,2013-03-03 01:57:00,
2013-03-02 18:02:00,44.7,42.0,30.11,NE,45,0.0,0.0,89,0.00,,,0.01,Rainwise IP-100,2013-03-03 02:02:00,
2013-03-02 18:07:00,44.6,42.0,30.11,NE,45,0.0,0.0,90,0.00,,,0.01,Rainwise IP-100,2013-03-03 02:07:00,
2013-03-02 18:12:00,44.6,42.0,30.11,NE,45,0.0,0.0,91,0.00,,,0.01,Rainwise IP-100,2013-03-03 02:12:00,
2013-03-02 18:17:00,44.5,42.0,30.11,NE,45,0.0,0.0,91,0.00,,,0.01,Rainwise IP-100,2013-03-03 02:17:00,
2013-03-02 18:22:00,44.5,42.0,30.12,NE,45,0.0,0.0,90,0.00,,,0.01,Rainwise IP-100,2013-03-03 02:22:00,
2013-03-02 18:27:00,44.5,42.0,30.12,NE,45,0.0,0.0,90,0.00,,,0.01,Rainwise IP-100,2013-03-03 02:27:00,
2013-03-02 18:32:00,44.4,41.0,30.13,NE,45,0.0,0.0,90,0.00,,,0.01,Rainwise IP-100,2013-03-03 02:32:00,
2013-03-02 18:37:00,44.4,41.0,30.13,NE,45,0.0,0.0,91,0.00,,,0.01,Rainwise IP-100,2013-03-03 02:37:00,
2013-03-02 18:42:00,44.3,42.0,30.13,WSW,247,0.0,3.5,92,0.00,,,0.01,Rainwise IP-100,2013-03-03 02:42:00,
2013-03-02 18:47:00,44.2,42.0,30.13,SSW,202,0.0,2.3,92,0.06,,,0.02,Rainwise IP-100,2013-03-03 02:47:00,
2013-03-02 18:52:00,44.0,42.0,30.13,SSW,202,0.0,0.0,93,0.12,,,0.04,Rainwise IP-100,2013-03-03 02:52:00,
2013-03-02 18:57:00,43.7,42.0,30.13,SSW,202,0.0,2.1,94,0.18,,,0.05,Rainwise IP-100,2013-03-03 02:57:00,
2013-03-02 19:02:00,43.4,41.0,30.13,SSW,202,0.0,0.0,94,0.18,,,0.06,Rainwise IP-100,2013-03-03 03:02:00,
2013-03-02 19:07:00,43.2,42.0,30.14,SSW,202,0.0,0.0,95,0.12,,,0.07,Rainwise IP-100,2013-03-03 03:07:00,
2013-03-02 19:12:00,43.0,42.0,30.14,SSW,202,0.0,1.6,96,0.06,,,0.07,Rainwise IP-100,2013-03-03 03:12:00,
2013-03-02 19:17:00,42.9,42.0,30.14,SSW,202,0.0,2.1,96,0.00,,,0.07,Rainwise IP-100,2013-03-03 03:17:00,
2013-03-02 19:22:00,42.8,42.0,30.14,SSW,202,0.0,0.0,97,0.06,,,0.08,Rainwise IP-100,2013-03-03 03:22:00,
2013-03-02 19:27:00,42.7,42.0,30.15,SSW,202,0.0,0.0,97,0.06,,,0.08,Rainwise IP-100,2013-03-03 03:27:00,
2013-03-02 19:32:00,42.7,42.0,30.15,SW,225,0.0,2.6,97,0.06,,,0.09,Rainwise IP-100,2013-03-03 03:32:00,
2013-03-02 19:37:00,42.7,42.0,30.14,SW,225,0.0,0.0,98,0.06,,,0.09,Rainwise IP-100,2013-03-03 03:37:00,
2013-03-02 19:42:00,42.6,42.0,30.15,SW,225,0.0,0.0,98,0.00,,,0.09,Rainwise IP-100,2013-03-03 03:42:00,
2013-03-02 19:47:00,42.5,42.0,30.14,SW,225,0.0,0.0,98,0.00,,,0.09,Rainwise IP-100,2013-03-03 03:47:00,
2013-03-02 19:52:00,42.4,41.0,30.15,SW,225,0.0,2.3,98,0.00,,,0.09,Rainwise IP-100,2013-03-03 03:52:00,
2013-03-02 19:57:00,42.3,41.0,30.15,SW,225,0.0,2.3,97,0.00,,,0.09,Rainwise IP-100,2013-03-03 03:57:00,
2013-03-02 20:02:00,42.2,41.0,30.15,SW,225,0.0,2.1,97,0.00,,,0.09,Rainwise IP-100,2013-03-03 04:02:00,
2013-03-02 20:07:00,42.1,41.0,30.16,SW,225,0.0,0.0,97,0.00,,,0.10,Rainwise IP-100,2013-03-03 04:07:00,
2013-03-02 20:12:00,42.0,41.0,30.16,SW,225,0.0,0.0,97,0.06,,,0.10,Rainwise IP-100,2013-03-03 04:12:00,
2013-03-02 20:17:00,41.9,41.0,30.15,SSW,202,0.0,2.8,97,0.06,,,0.10,Rainwise IP-100,2013-03-03 04:17:00,
2013-03-02 20:22:00,41.8,41.0,30.16,SSW,202,0.0,3.0,97,0.00,,,0.10,Rainwise IP-100,2013-03-03 04:22:00,
2013-03-02 20:27:00,41.7,41.0,30.15,ESE,112,0.0,2.1,97,0.00,,,0.10,Rainwise IP-100,2013-03-03 04:27:00,
2013-03-02 20:32:00,41.5,41.0,30.16,SE,135,0.0,0.0,97,0.00,,,0.10,Rainwise IP-100,2013-03-03 04:32:00,
2013-03-02 20:37:00,41.4,40.0,30.16,SSW,202,1.6,1.6,97,0.00,,,0.10,Rainwise IP-100,2013-03-03 04:37:00,
2013-03-02 20:42:00,41.2,40.0,30.16,SSW,202,0.0,3.3,97,0.00,,,0.10,Rainwise IP-100,2013-03-03 04:42:00,
2013-03-02 20:47:00,41.1,40.0,30.17,SSW,202,0.0,0.0,97,0.06,,,0.11,Rainwise IP-100,2013-03-03 04:47:00,
2013-03-02 20:52:00,41.1,40.0,30.17,SSW,202,0.0,0.0,97,0.06,,,0.11,Rainwise IP-100,2013-03-03 04:52:00,
2013-03-02 20:57:00,41.0,40.0,30.16,SSW,202,0.0,0.0,98,0.00,,,0.12,Rainwise IP-100,2013-03-03 04:57:00,
2013-03-02 21:00:00,41.0,40.0,30.16,SSW,202,0.0,0.0,98,0.06,,,0.12,Rainwise IP-100,2013-03-03 05:00:00,
2013-03-02 21:05:00,41.0,40.0,30.16,SSW,202,0.0,0.0,98,0.12,,,0.13,Rainwise IP-100,2013-03-03 05:05:00,
2013-03-02 21:10:00,41.0,40.0,30.16,SSW,202,0.0,1.2,98,0.06,,,0.13,Rainwise IP-100,2013-03-03 05:10:00,
2013-03-02 21:15:00,40.9,40.0,30.17,SSW,202,0.0,1.9,98,0.00,,,0.13,Rainwise IP-100,2013-03-03 05:15:00,
2013-03-02 21:20:00,40.9,40.0,30.16,SSW,202,0.0,0.0,98,0.00,,,0.13,Rainwise IP-100,2013-03-03 05:20:00,
2013-03-02 21:25:00,40.8,40.0,30.16,SSW,202,0.0,0.0,98,0.00,,,0.13,Rainwise IP-100,2013-03-03 05:25:00,
2013-03-02 21:28:00,40.8,40.0,30.16,SW,225,0.0,1.6,98,0.00,,,0.13,Rainwise IP-100,2013-03-03 05:28:00,
2013-03-02 21:33:00,40.7,40.0,30.17,SW,225,0.0,0.0,98,0.00,,,0.13,Rainwise IP-100,2013-03-03 05:33:00,
2013-03-02 21:38:00,40.6,40.0,30.16,SW,225,0.0,0.0,98,0.00,,,0.13,Rainwise IP-100,2013-03-03 05:38:00,
2013-03-02 21:43:00,40.5,40.0,30.16,SW,225,1.6,0.0,98,0.00,,,0.13,Rainwise IP-100,2013-03-03 05:43:00,
2013-03-02 21:48:00,40.5,40.0,30.16,SW,225,1.6,3.7,98,0.00,,,0.13,Rainwise IP-100,2013-03-03 05:48:00,
2013-03-02 21:53:00,40.5,40.0,30.16,SW,225,0.0,1.6,98,0.00,,,0.13,Rainwise IP-100,2013-03-03 05:53:00,
2013-03-02 21:58:00,40.6,40.0,30.17,SSW,202,0.0,0.0,98,0.00,,,0.13,Rainwise IP-100,2013-03-03 05:58:00,
2013-03-02 22:03:00,40.6,40.0,30.17,SSW,202,0.0,0.0,98,0.00,,,0.13,Rainwise IP-100,2013-03-03 06:03:00,
2013-03-02 22:08:00,40.6,40.0,30.18,SSW,202,0.0,1.6,98,0.00,,,0.13,Rainwise IP-100,2013-03-03 06:08:00,
2013-03-02 22:13:00,40.6,40.0,30.17,SSW,202,0.0,0.0,98,0.00,,,0.13,Rainwise IP-100,2013-03-03 06:13:00,
2013-03-02 22:18:00,40.5,40.0,30.17,SSW,202,0.0,3.5,97,0.00,,,0.13,Rainwise IP-100,2013-03-03 06:18:00,
2013-03-02 22:23:00,40.4,39.0,30.16,SSW,202,1.4,2.3,97,0.00,,,0.13,Rainwise IP-100,2013-03-03 06:23:00,
2013-03-02 22:28:00,40.4,39.0,30.17,SSW,202,0.0,2.6,97,0.00,,,0.13,Rainwise IP-100,2013-03-03 06:28:00,
2013-03-02 22:33:00,40.4,39.0,30.18,West,270,0.0,2.6,97,0.00,,,0.13,Rainwise IP-100,2013-03-03 06:33:00,
2013-03-02 22:38:00,40.4,39.0,30.18,West,270,0.0,1.4,97,0.00,,,0.13,Rainwise IP-100,2013-03-03 06:38:00,
2013-03-02 22:43:00,40.4,40.0,30.18,West,270,0.0,0.0,98,0.00,,,0.13,Rainwise IP-100,2013-03-03 06:43:00,
2013-03-02 22:48:00,40.4,40.0,30.18,West,270,0.0,1.4,98,0.00,,,0.13,Rainwise IP-100,2013-03-03 06:48:00,
2013-03-02 22:53:00,40.3,40.0,30.18,West,270,0.0,1.6,98,0.06,,,0.14,Rainwise IP-100,2013-03-03 06:53:00,
2013-03-02 22:58:00,40.3,40.0,30.18,SSW,202,0.0,1.9,98,0.12,,,0.15,Rainwise IP-100,2013-03-03 06:58:00,
2013-03-02 23:03:00,40.2,39.0,30.18,SSW,202,0.0,2.1,97,0.12,,,0.16,Rainwise IP-100,2013-03-03 07:03:00,
2013-03-02 23:04:00,40.2,39.0,30.19,SSW,202,0.0,2.1,97,0.12,,,0.16,Rainwise IP-100,2013-03-03 07:04:00,
2013-03-02 23:09:00,40.1,39.0,30.18,SSW,202,0.0,2.6,97,0.12,,,0.17,Rainwise IP-100,2013-03-03 07:09:00,
2013-03-02 23:14:00,40.0,40.0,30.18,SW,225,2.6,2.8,98,0.06,,,0.17,Rainwise IP-100,2013-03-03 07:14:00,
2013-03-02 23:19:00,39.8,40.0,30.18,SSW,202,0.0,3.0,98,0.00,,,0.17,Rainwise IP-100,2013-03-03 07:19:00,
2013-03-02 23:24:00,39.6,40.0,30.18,SSW,202,0.0,2.1,98,0.00,,,0.17,Rainwise IP-100,2013-03-03 07:24:00,
2013-03-02 23:29:00,39.4,38.0,30.17,SSW,202,0.0,3.3,97,0.00,,,0.17,Rainwise IP-100,2013-03-03 07:29:00,
2013-03-02 23:34:00,39.2,38.0,30.18,SSW,202,0.0,1.4,97,0.00,,,0.17,Rainwise IP-100,2013-03-03 07:34:00,
2013-03-02 23:39:00,39.0,39.0,30.18,SSW,202,0.0,0.0,98,0.00,,,0.17,Rainwise IP-100,2013-03-03 07:39:00,
2013-03-02 23:44:00,38.7,39.0,30.18,SSW,202,0.0,0.0,98,0.00,,,0.17,Rainwise IP-100,2013-03-03 07:44:00,
2013-03-02 23:49:00,38.4,38.0,30.18,SSW,202,0.0,0.0,98,0.00,,,0.17,Rainwise IP-100,2013-03-03 07:49:00,
2013-03-02 23:54:00,38.3,38.0,30.18,SSW,202,0.0,0.0,98,0.00,,,0.17,Rainwise IP-100,2013-03-03 07:54:00,
2013-03-02 23:59:00,38.2,38.0,30.18,SSW,202,0.0,3.3,98,0.00,,,0.17,Rainwise IP-100,2013-03-03 07:59:00,